Temperature
9 9 9 10 10 11 12 12 13 14 14 14 13 13 14 14 15 15 15 15 15 14 14 14 13 14 14 13 14 14 14 14 13 13 13 13 13 13 12 13 13 13 13 13
9 8 10 11 11 11 11 11 12 13 14 13 12 13 13 14 14 14 15 15 14 14 13 13 13 13 13 13 13 13 13 13 13 13 13 13 13 12 12 12 12 12 12 12
8 9 11 11 10 10 10 10 11 11 12 12 12 11 12 13 14 14 14 14 14 13 13 12 12 12 12 12 13 13 13 13 13 13 12 12 12 12 12 12 12 12 12 12
8 10 10 10 10 10 10 11 11 11 10 10 11 9 12 13 13 13 13 13 13 12 12 12 11 11 11 12 12 12 13 13 12 12 12 12 12 12 12 12 12 12 11 12
8 9 9 9 9 10 10 11 11 10 10 9 10 9 10 13 12 12 12 13 12 12 11 11 11 11 11 11 11 12 12 12 12 12 12 12 11 11 11 11 11 11 11 11
8 9 9 9 10 10 10 10 10 9 9 8 9 9 10 12 12 12 12 12 12 11 11 10 10 10 10 10 10 11 11 11 11 11 11 11 11 11 11 11 11 11 11 11
7 8 8 8 8 9 9 7 7 7 7 8 10 10 10 11 12 11 11 11 11 10 10 9 9 9 9 9 10 10 10 10 10 11 11 11 11 11 11 11 10 10 10 10
6 6 7 7 7 7 7 7 7 7 7 8 10 9 10 10 10 11 10 10 9 9 9 8 8 8 8 8 9 9 9 9 10 10 10 10 10 10 10 10 10 10 10 10
5 6 7 8 8 7 7 7 8 7 8 8 8 9 9 10 9 9 9 9 8 8 8 7 7 7 7 7 8 8 8 8 9 9 9 9 10 9 9 10 9 9 9 9
5 4 6 7 7 7 7 7 7 6 7 8 8 8 8 7 8 8 8 8 7 7 7 7 7 7 7 7 7 7 7 7 8 8 9 9 9 9 9 9 9 9 9 9
5 4 5 6 5 6 6 6 6 6 7 7 8 8 8 7 7 7 7 7 6 6 6 6 6 6 6 6 6 6 6 6 7 7 8 8 8 8 8 8 8 8 8 8
4 4 3 5 6 6 6 6 6 5 6 7 7 6 7 7 7 7 6 6 6 5 5 5 6 6 6 6 6 6 6 6 6 6 7 7 7 7 7 7 7 7 8 7
4 3 3 4 5 5 5 5 5 5 5 5 6 6 6 6 6 6 6 5 5 5 5 5 5 5 5 5 5 5 5 5 6 6 6 6 6 6 6 7 7 7 7 7
4 2 2 3 3 3 3 4 5 4 4 5 6 6 5 5 5 5 5 4 4 4 4 4 4 4 4 4 4 4 5 5 5 5 5 6 6 6 6 6 6 6 6 6
3 2 2 3 4 4 4 4 4 4 4 4 5 5 5 5 4 5 4 4 3 3 3 3 3 3 3 4 4 4 4 4 5 5 5 5 5 5 5 5 5 5 5 5
2 1 2 2 4 4 3 4 4 4 4 4 5 5 4 5 5 4 3 3 3 2 2 2 2 3 3 3 3 3 3 4 4 4 4 4 4 4 4 4 4 4 4 4
1 1 1 2 3 3 2 3 3 3 4 4 4 4 3 3 3 3 3 2 2 2 1 1 1 2 2 3 3 3 3 3 3 3 3 3 3 4 3 3 4 4 4 4
0 0 1 1 2 1 2 3 3 3 3 3 3 3 3 3 3 2 2 2 1 1 1 1 1 1 2 2 2 2 2 2 2 3 3 3 3 3 3 3 3 3 3 3
1 1 1 1 1 2 2 2 2 2 2 2 2 2 2 2 2 1 1 1 1 1 1 0 1 1 1 1 2 2 2 2 2 2 2 2 2 2 2 2 2 2 2 2
1 0 -0 1 1 1 2 2 2 2 1 1 1 1 1 1 0 0 0 0 0 0 0 0 0 0 1 1 1 2 1 1 1 1 1 1 1 1 1 1 1 1 1 1
-1 -1 -1 -0 0 1 1 1 2 1 0 1 1 1 0 0 -0 -0 -1 -1 -1 -1 -1 -0 -0 -0 0 0 1 1 1 1 1 1 1 1 1 1 1 1 1 1 1 1
-1 -1 -1 -1 -1 -0 0 1 0 -0 0 0 -0 -0 -1 -1 -1 -1 -1 -1 -1 -1 -1 -1 -1 -1 -1 -0 -0 0 -0 -0 -0 -0 0 0 0 0 0 0 0 0 0 -0
0 -0 -0 -0 -1 -0 -0 -0 -1 -0 -0 -1 -1 -1 -1 -2 -2 -2 -2 -2 -2 -2 -2 -2 -1 -1 -1 -1 -1 -1 -1 -1 -1 -1 -0 -0 -1 -1 -1 -1 -1 -1 -1 -1
-0 -0 -1 -1 -1 -0 -0 -1 -1 -1 -1 -1 -1 -1 -2 -2 -2 -3 -3 -3 -3 -2 -2 -2 -2 -2 -2 -2 -2 -2 -2 -2 -1 -1 -1 -1 -1 -1 -1 -1 -1 -1 -1 -2
-1 -1 -1 -1 -1 -1 -1 -1 -1 -2 -2 -2 -2 -2 -2 -3 -3 -3 -3 -3 -3 -3 -3 -2 -2 -2 -2 -2 -2 -2 -2 -2 -2 -2 -2 -2 -2 -2 -2 -2 -2 -2 -2 -2
-2 -2 -2 -2 -2 -2 -2 -2 -2 -2 -2 -2 -2 -3 -3 -3 -3 -3 -3 -3 -3 -3 -3 -3 -3 -3 -3 -3 -3 -3 -3 -3 -3 -3 -3 -3 -3 -3 -3 -3 -3 -3 -3 -3
Wind_Speed
6 5 8 10 11 7 6 9 10 8 5 8 9 9 7 5 5 6 6 5 6 5 5 5 5 5 5 6 6 6 6 6 6 5 5 4 3 3 3 4 5 5 4 4
4 8 9 8 8 8 8 8 8 3 2 4 6 9 8 7 7 7 6 5 5 4 5 5 6 5 5 5 5 5 5 6 6 5 4 3 4 3 3 3 4 4 4 4
6 4 6 8 7 8 9 7 5 3 1 3 4 6 8 6 6 5 4 3 4 5 5 5 5 5 4 4 5 5 5 5 6 5 5 5 4 3 2 2 2 2 3 4
6 4 5 7 7 7 7 6 4 3 2 3 5 4 6 7 6 7 7 5 4 4 4 4 4 4 4 3 3 4 5 5 5 6 6 7 5 4 3 3 3 2 3 4
3 3 4 7 7 6 4 2 2 4 4 3 5 4 5 8 8 8 7 6 4 4 4 4 3 4 4 4 3 4 5 5 5 5 6 6 5 4 3 4 4 3 2 2
3 2 3 4 4 4 2 1 1 3 3 5 8 7 5 5 8 7 5 5 5 4 4 4 4 4 4 4 3 3 4 4 5 5 5 6 6 5 5 5 4 3 2 1
1 1 0 1 2 3 2 3 2 3 5 6 6 6 4 1 3 5 5 5 5 5 4 4 4 4 4 4 3 3 4 4 3 4 4 5 6 6 6 5 4 4 3 2
1 2 2 1 2 3 5 5 4 3 4 3 4 5 1 2 5 6 6 6 5 5 5 4 4 3 3 3 3 3 4 4 3 3 3 4 5 4 4 4 4 4 3 3
1 2 1 0 1 2 3 5 3 1 2 2 4 3 1 3 5 5 5 6 5 5 5 4 4 3 3 3 3 3 4 4 3 3 3 3 3 3 4 4 3 3 2 3
2 2 2 1 1 1 2 2 1 2 3 4 4 5 3 4 3 3 3 4 5 4 4 3 3 3 3 3 3 3 4 4 4 3 3 3 3 4 4 4 4 3 3 3
2 1 1 2 3 3 2 3 2 3 3 2 3 1 2 3 4 4 3 4 4 4 3 2 3 3 3 3 3 3 3 4 4 4 3 3 3 3 4 4 4 3 3 3
2 1 1 2 2 1 2 2 2 2 3 2 1 1 3 5 5 4 4 4 4 4 3 3 3 3 4 4 3 3 3 4 4 4 3 3 4 4 4 4 4 4 4 3
1 0 0 1 1 1 1 2 3 2 1 2 2 2 1 4 4 4 5 5 4 4 4 4 4 4 3 3 3 3 3 3 4 4 4 4 4 4 4 4 4 4 3 3
2 0 2 3 2 1 2 3 2 2 2 3 4 3 1 2 3 3 4 4 4 4 4 4 4 4 3 4 4 3 3 3 4 4 4 4 4 4 4 4 4 3 3 3
2 1 1 3 3 2 2 4 3 4 5 4 4 3 3 3 2 3 4 4 4 4 4 4 4 4 3 4 4 4 4 4 4 5 5 4 4 4 4 4 4 3 3 3
1 1 2 3 2 1 3 4 6 6 5 6 4 3 1 2 3 3 3 4 3 3 4 4 4 4 4 4 4 4 4 4 4 4 4 5 5 5 4 4 4 4 3 3
1 1 1 1 1 2 4 4 4 4 4 4 5 3 1 2 1 2 3 3 3 3 3 4 4 4 4 4 4 4 4 4 5 5 5 5 5 4 4 4 4 4 3 3
1 1 1 1 1 3 2 0 1 3 2 2 1 1 1 1 2 3 4 3 3 3 3 4 4 4 3 4 4 4 5 5 5 5 4 4 4 4 3 4 3 3 3 2
3 2 1 1 2 4 1 1 0 2 2 1 1 1 2 3 3 3 4 4 3 3 3 3 3 3 3 4 4 4 5 5 5 4 3 3 3 3 3 3 3 2 2 2
0 1 1 2 2 3 1 1 1 0 2 1 0 1 1 2 1 1 2 4 4 4 4 4 4 4 4 4 4 5 4 4 4 3 3 3 3 3 3 3 2 2 2 2
0 1 3 3 3 3 1 2 0 2 3 2 1 0 0 0 1 1 2 3 3 4 4 4 4 4 4 4 4 5 4 4 3 3 3 3 2 3 3 2 2 2 2 2
4 3 3 3 4 5 1 1 1 2 1 2 2 2 2 2 3 3 3 3 3 4 4 4 4 4 4 4 4 5 4 3 3 3 2 2 2 2 3 2 2 2 1 1
4 4 2 3 4 1 2 2 1 1 1 1 1 2 3 3 2 2 2 2 3 3 3 3 4 4 4 4 4 4 3 3 3 2 2 2 2 2 2 2 1 1 1 1
2 1 2 2 2 2 1 1 1 2 1 1 2 2 2 2 2 2 2 2 2 2 2 2 3 3 3 3 4 3 3 3 3 2 2 2 2 2 2 1 1 1 1 1
2 2 2 3 2 1 1 1 1 2 2 2 2 2 2 2 1 1 1 1 2 2 2 2 2 2 2 2 3 3 3 3 2 2 1 1 1 1 1 1 1 0 1 1
3 4 4 3 2 2 1 1 1 2 1 1 1 2 1 2 1 1 1 1 1 2 2 2 2 2 2 2 2 2 2 2 2 2 2 2 1 1 1 1 2 3 2 2
Wind_Direction
187 198 208 207 214 238 241 231 228 227 195 204 219 233 239 224 214 222 217 194 177 172 157 138 133 133 130 134 139 147 147 145 137 139 139 134 133 125 113 114 121 128 130 130
186 220 222 219 220 244 257 253 240 231 185 209 224 242 243 233 218 212 210 192 172 159 150 143 135 135 139 144 147 149 149 148 146 146 145 140 135 128 121 108 109 116 127 136
209 227 213 220 221 235 242 243 239 216 248 242 240 253 228 225 212 197 202 194 163 164 159 149 141 136 136 139 151 154 151 151 144 137 127 119 105 101 105 124 130 116 125 129
234 243 210 210 223 226 237 240 244 218 187 224 202 235 232 204 205 197 191 192 164 156 153 151 146 144 144 140 143 149 147 145 146 141 142 146 148 151 161 152 142 130 120 126
244 233 223 220 226 228 249 262 227 236 229 244 219 224 245 201 200 200 185 175 159 148 147 145 139 135 126 119 127 135 135 139 143 150 153 152 148 147 136 133 133 130 115 120
259 270 250 248 234 233 244 87 277 256 229 232 213 207 241 210 191 183 177 157 140 125 124 125 119 112 112 114 117 120 128 132 146 153 154 151 148 145 143 142 145 142 130 122
264 253 261 305 187 189 183 144 162 196 206 226 201 206 228 193 148 149 145 125 112 108 105 113 108 106 110 122 127 127 127 129 136 148 154 151 153 158 158 151 153 149 143 139
228 244 189 188 206 199 206 193 188 195 202 218 186 209 213 89 91 98 105 104 94 84 88 94 99 102 109 123 133 138 137 136 139 142 142 143 147 151 148 144 147 150 150 151
290 241 151 95 347 166 195 223 256 287 278 216 202 195 143 85 85 91 94 101 99 85 76 80 90 93 109 133 143 147 142 137 136 132 124 123 127 123 125 126 123 128 124 133
327 278 206 194 311 261 228 223 207 195 214 226 204 199 189 161 144 119 105 104 99 90 78 75 82 86 90 116 131 133 132 133 128 122 124 118 114 114 115 116 117 116 107 111
356 303 237 170 210 205 189 201 210 212 232 222 207 193 35 136 130 119 106 109 113 110 100 84 75 77 82 91 107 117 120 120 118 116 111 103 101 105 107 110 108 108 103 105
355 321 250 224 231 267 223 218 203 201 241 248 247 249 12 84 83 92 90 96 93 90 82 80 81 81 79 85 91 103 114 119 118 115 109 105 99 99 100 101 97 95 97 100
6 67 265 209 217 317 251 244 231 240 269 242 224 204 44 75 71 72 77 82 80 77 70 69 70 73 78 78 83 88 95 118 118 112 109 102 97 96 96 97 97 95 97 95
3 184 201 220 240 203 257 266 260 210 222 250 234 210 197 106 89 80 77 79 75 69 64 65 67 61 67 72 73 77 79 93 106 106 104 99 95 93 91 89 90 92 92 94
12 275 265 293 301 211 247 244 238 231 236 239 254 240 225 166 140 116 99 91 80 66 64 64 65 56 59 69 70 68 69 81 98 102 100 98 96 90 86 84 82 79 81 82
16 299 307 286 283 211 264 255 234 239 250 256 272 282 17 85 89 97 101 96 83 67 56 56 60 58 55 66 73 72 68 76 94 99 99 97 97 91 85 80 79 80 77 76
328 320 297 261 284 319 275 245 222 230 242 241 249 248 104 91 93 114 107 95 85 68 53 49 54 57 48 55 72 75 70 73 82 87 88 89 95 95 90 84 74 68 62 61
221 275 275 285 344 234 236 35 205 223 266 286 300 1 93 131 85 70 71 75 87 76 60 47 45 51 50 53 67 75 72 76 80 80 79 82 86 90 93 90 77 64 60 55
230 206 243 224 237 260 237 267 187 220 272 282 290 15 35 60 75 61 43 49 64 75 71 61 53 56 61 64 72 83 78 80 83 80 77 80 83 82 84 85 81 68 57 49
274 172 202 234 236 241 249 324 336 163 265 323 279 154 84 66 160 251 29 45 51 62 66 63 58 59 58 57 75 85 79 76 75 71 68 68 74 84 85 84 74 56 56 43
169 228 222 237 239 258 303 305 43 191 252 338 330 218 109 331 238 126 64 60 62 67 70 67 65 60 53 54 71 78 73 67 61 58 60 61 69 80 81 76 67 56 49 43
187 204 206 212 226 246 338 97 162 223 359 16 43 75 80 75 91 92 80 67 67 68 68 67 66 58 49 54 69 70 61 53 57 59 65 69 69 70 71 69 54 51 54 46
200 199 200 200 214 186 90 106 38 12 360 29 62 93 113 107 103 92 80 67 64 64 65 63 68 62 48 48 64 72 51 52 57 67 71 68 68 70 78 79 63 45 41 37
214 210 216 233 222 192 152 125 55 46 46 57 75 83 107 114 107 93 74 57 53 57 66 64 70 69 54 48 52 59 50 49 62 62 56 63 79 70 63 68 77 81 62 23
254 212 221 229 238 236 207 144 103 79 75 73 70 81 100 105 98 95 76 48 46 46 49 59 70 69 59 59 55 53 47 47 53 50 42 41 51 77 60 40 33 53 227 236
227 232 231 231 203 201 210 142 110 100 96 106 110 87 79 108 124 90 75 61 55 46 52 56 55 49 41 58 59 54 50 54 54 38 27 25 19 33 68 55 10 357 316 305
Height
1462 1465 1465 1463 1464 1464 1464 1464 1464 1462 1461 1466 1469 1470 1469 1469 1470 1471 1472 1475 1477 1479 1482 1484 1486 1489 1491 1493 1496 1499 1502 1505 1507 1510 1512 1515 1518 1520 1522 1524 1526 1528 1530 1531
1462 1462 1460 1460 1462 1463 1464 1466 1463 1463 1461 1465 1468 1468 1466 1465 1466 1468 1470 1472 1474 1477 1479 1482 1484 1486 1489 1491 1493 1496 1499 1502 1505 1508 1510 1513 1516 1518 1520 1522 1524 1526 1528 1529
1459 1458 1457 1459 1461 1463 1464 1466 1464 1465 1465 1465 1468 1469 1465 1462 1463 1465 1468 1470 1472 1474 1477 1479 1481 1484 1486 1488 1491 1493 1496 1499 1502 1505 1508 1510 1513 1516 1518 1520 1522 1524 1525 1527
1458 1456 1456 1459 1461 1463 1465 1462 1462 1465 1471 1473 1469 1479 1464 1460 1462 1462 1465 1468 1469 1472 1475 1477 1479 1481 1483 1486 1488 1490 1493 1496 1499 1502 1505 1507 1510 1512 1515 1517 1519 1521 1523 1525
1459 1457 1458 1460 1460 1462 1463 1461 1464 1467 1470 1474 1470 1476 1467 1456 1460 1461 1462 1465 1468 1470 1473 1475 1477 1479 1481 1484 1486 1488 1490 1493 1496 1499 1502 1505 1507 1510 1513 1515 1517 1519 1520 1522
1459 1458 1459 1459 1459 1461 1462 1464 1466 1468 1471 1478 1468 1471 1467 1456 1455 1458 1460 1463 1466 1469 1471 1473 1475 1478 1479 1481 1483 1485 1487 1490 1493 1496 1499 1502 1504 1507 1509 1511 1514 1516 1517 1519
1459 1459 1460 1460 1461 1463 1464 1471 1477 1478 1477 1473 1459 1463 1462 1453 1452 1455 1458 1462 1465 1468 1470 1471 1473 1475 1477 1479 1480 1482 1485 1487 1490 1493 1496 1499 1501 1504 1506 1508 1511 1513 1514 1515
1464 1465 1461 1461 1463 1464 1466 1468 1474 1476 1473 1466 1459 1463 1460 1454 1453 1455 1459 1462 1465 1467 1469 1470 1472 1473 1475 1477 1478 1480 1482 1485 1487 1490 1493 1496 1499 1501 1504 1506 1508 1510 1511 1512
1467 1466 1461 1461 1462 1464 1466 1467 1464 1469 1466 1467 1464 1459 1458 1455 1456 1457 1460 1462 1465 1467 1469 1470 1471 1472 1474 1475 1477 1478 1480 1482 1485 1488 1490 1493 1496 1498 1500 1503 1505 1507 1509 1510
1468 1470 1463 1463 1463 1464 1465 1465 1468 1472 1471 1467 1460 1460 1462 1461 1460 1461 1462 1463 1466 1468 1469 1470 1471 1472 1473 1474 1476 1478 1479 1481 1483 1485 1488 1490 1493 1495 1498 1500 1502 1504 1506 1507
1468 1472 1468 1465 1466 1466 1467 1468 1468 1468 1467 1467 1465 1466 1458 1459 1460 1461 1463 1464 1466 1468 1469 1470 1471 1472 1473 1474 1475 1476 1478 1479 1481 1483 1486 1488 1490 1493 1495 1497 1499 1501 1503 1504
1469 1472 1472 1468 1464 1464 1465 1467 1469 1473 1469 1464 1466 1471 1460 1460 1461 1462 1464 1465 1467 1468 1469 1470 1470 1471 1472 1473 1474 1475 1476 1478 1480 1482 1484 1486 1489 1491 1493 1495 1497 1499 1500 1502
1470 1474 1475 1471 1471 1469 1468 1467 1468 1469 1469 1468 1469 1472 1463 1462 1463 1465 1466 1467 1468 1469 1469 1470 1470 1471 1472 1472 1473 1474 1475 1477 1478 1480 1482 1485 1487 1489 1490 1492 1494 1496 1498 1499
1470 1474 1476 1474 1470 1471 1471 1469 1467 1470 1472 1470 1466 1466 1465 1465 1465 1467 1467 1468 1469 1469 1470 1470 1470 1471 1471 1471 1472 1473 1474 1476 1477 1479 1481 1483 1485 1486 1488 1490 1492 1494 1495 1497
1473 1475 1473 1470 1467 1467 1468 1468 1467 1468 1468 1469 1464 1464 1463 1464 1466 1467 1468 1469 1470 1470 1470 1470 1470 1470 1470 1471 1471 1472 1473 1475 1476 1477 1479 1481 1483 1485 1487 1489 1490 1492 1493 1494
1475 1476 1474 1471 1466 1466 1468 1467 1466 1466 1466 1465 1464 1465 1464 1464 1466 1467 1468 1469 1469 1470 1470 1470 1470 1469 1470 1470 1470 1471 1472 1474 1475 1476 1478 1480 1481 1483 1485 1487 1489 1490 1491 1492
1477 1478 1476 1472 1468 1467 1471 1466 1466 1466 1465 1466 1466 1466 1465 1466 1466 1467 1468 1469 1469 1470 1470 1470 1469 1469 1469 1470 1470 1471 1472 1473 1475 1476 1477 1479 1480 1482 1484 1486 1487 1488 1489 1490
1478 1478 1477 1475 1474 1479 1471 1464 1464 1465 1465 1465 1464 1464 1465 1466 1467 1468 1469 1469 1469 1469 1469 1469 1469 1469 1469 1469 1470 1471 1472 1473 1474 1475 1476 1478 1479 1481 1483 1484 1485 1486 1487 1488
1474 1477 1477 1478 1478 1471 1467 1465 1465 1467 1467 1465 1465 1465 1466 1466 1467 1469 1469 1469 1469 1469 1469 1469 1469 1468 1468 1469 1469 1470 1471 1472 1473 1475 1476 1477 1478 1480 1481 1482 1483 1484 1485 1485
1474 1475 1479 1477 1476 1474 1469 1465 1463 1466 1469 1465 1465 1465 1466 1466 1469 1470 1469 1468 1468 1468 1468 1468 1468 1468 1468 1468 1469 1470 1471 1472 1472 1474 1475 1476 1477 1478 1479 1480 1482 1482 1483 1483
1479 1479 1480 1478 1477 1471 1468 1465 1464 1471 1470 1466 1464 1465 1465 1466 1468 1469 1468 1468 1468 1468 1468 1468 1468 1467 1467 1468 1469 1469 1470 1471 1472 1473 1474 1475 1476 1477 1478 1478 1480 1480 1481 1481
1475 1477 1477 1477 1478 1476 1467 1465 1468 1468 1466 1465 1464 1464 1465 1466 1466 1467 1467 1467 1467 1467 1467 1467 1467 1467 1467 1467 1468 1468 1469 1470 1471 1472 1473 1473 1474 1475 1476 1477 1477 1478 1478 1478
1469 1471 1470 1471 1473 1468 1466 1465 1466 1465 1465 1465 1464 1464 1465 1465 1466 1466 1466 1467 1467 1467 1467 1466 1466 1466 1467 1467 1468 1468 1468 1469 1469 1470 1471 1471 1472 1473 1474 1475 1475 1475 1476 1476
1466 1466 1466 1467 1466 1465 1465 1464 1465 1465 1464 1464 1464 1464 1464 1464 1465 1465 1465 1466 1466 1466 1466 1466 1466 1466 1467 1467 1467 1467 1468 1468 1468 1468 1469 1470 1470 1471 1472 1473 1473 1473 1473 1473
1466 1464 1464 1464 1464 1464 1463 1463 1464 1464 1463 1464 1464 1464 1464 1464 1464 1465 1464 1465 1465 1465 1465 1465 1465 1465 1466 1466 1466 1467 1467 1467 1467 1467 1468 1468 1469 1469 1470 1470 1471 1471 1471 1471
1463 1464 1464 1462 1462 1462 1462 1462 1462 1462 1462 1462 1462 1463 1463 1463 1463 1463 1464 1464 1464 1464 1464 1464 1464 1464 1465 1465 1465 1466 1466 1465 1465 1465 1466 1466 1467 1467 1467 1467 1468 1468 1469 1469